Regional Weather Roundup
Issued by NWS

Home | Current Version | Previous Version | Text Only | Print | Product List | Glossary On
Versions: 1 2 3 4 5 6 7 8 9 10 11 12 13 14 15 16 17 18 19 20 21 22 23 24 25 26 27 28 29 30 31 32 33 34 35 36 37 38 39 40 41 42 43 44 45 46 47 48 49 50
000
ASUS44 KFWD 241903
RWRTX
NORTH TEXAS HOURLY WEATHER ROUNDUP
NATIONAL WEATHER SERVICE FORT WORTH TX
200 PM CDT FRI OCT 24 2014

NOTE: "FAIR" INDICATES FEW OR NO CLOUDS BELOW 12,000 FEET WITH NO
SIGNIFICANT WEATHER AND/OR OBSTRUCTIONS TO VISIBILITY.

TXZ118-119-242000-
DALLAS/FORT WORTH METROPLEX

CITY           SKY/WX    TMP DP  RH WIND       PRES   REMARKS
DFW AIRPORT    MOSUNNY   80  59  48 S7        30.10F
DALLAS LOVE    SUNNY     80  58  46 VRB3      30.11F
FTW MEACHAM    SUNNY     82  61  48 S8        30.10F
DAL-EXECUTIVE  SUNNY     82  58  43 VRB5      30.11F
FTW-ALLIANCE   MOSUNNY   82  60  47 S9        30.10F
FTW-NAS-JRB    SUNNY     87  60  40 S8        30.14F
FTW-SPINKS     SUNNY     82  61  47 S8        30.13F
ARLINGTON      SUNNY     81  58  45 VRB7      30.11F
GRAND PRAIRIE  SUNNY     81  61  50 MISG      30.13F
MESQUITE       SUNNY     79  55  44 SE9       30.13F
LANCASTER      SUNNY     79  55  43 S9        30.13F
$$

TXZ091>094-102>105-117-120-121-131>134-242000-
NORTH CENTRAL TEXAS

CITY           SKY/WX    TMP DP  RH WIND       PRES   REMARKS
SHRMAN/DENISON SUNNY     81  64  55 S8        30.11F
GAINESVILLE    SUNNY     79  61  54 S10       30.12F
BRIDGEPORT     SUNNY     85  62  45 S10       30.11F
DECATUR        SUNNY     82  59  45 SW9       30.10F
DENTON         SUNNY     80  60  50 SW12      30.10F
MCKINNEY       SUNNY     78  58  49 S10       30.11F
GREENVILLE     SUNNY     81  54  39 SW8       30.13F
ROCKWALL       SUNNY     79  59  49 SW8       30.12F
TERRELL        SUNNY     79  58  48 VRB7      30.13F
WAXAHACHIE     SUNNY     80  59  48 S6        30.13F
CLEBURNE       SUNNY     81  61  50 VRB7      30.13F
GRANBURY       SUNNY     85  60  42 S8        30.11F
$$

TXZ083>090-098>101-113>116-127>130-139>142-154-155-242000-
WESTERN NORTH TEXAS

CITY           SKY/WX    TMP DP  RH WIND       PRES   REMARKS
WICHITA FALLS  MOSUNNY   83  62  49 SW12      30.07F
WF-KICKAPOO    SUNNY     83  59  43 SW12G17   30.09F
VERNON         SUNNY     88  57  35 SW13      30.07F
ABILENE        SUNNY     84  58  40 SW12      30.13F
ABILENE-DYESS  SUNNY     85  57  38 S9        30.11F
MINERAL WELLS  SUNNY     84  60  44 S9        30.09F
STEPHENVILLE   SUNNY     82  59  45 S7        30.15F
COMANCHE       SUNNY     83  61  47 S7        30.14F
COLEMAN        SUNNY     83  60  44 SW9G17    30.14F
BRADY          SUNNY     82  55  39 S7        30.14F
$$

TXZ143>147-156>162-174-175-242000-
CENTRAL TEXAS

CITY           SKY/WX    TMP DP  RH WIND       PRES   REMARKS
WACO           SUNNY     80  58  46 S8        30.13F
WACO-TSTC      SUNNY     81  59  47 MISG      30.13F
WACO-MCGREGOR  SUNNY     82  57  42 S5        30.14F
HILLSBORO      SUNNY     81  57  44 SE6       30.13F
CORSICANA      SUNNY     79  56  45 VRB6      30.14F
MEXIA          SUNNY     77  58  53 CALM      30.14F
HEARNE         SUNNY     78  57  48 CALM      30.15F HAZE
CAMERON        SUNNY     80  59  48 CALM      30.14F
TEMPLE         SUNNY     81  57  44 S7        30.13F
KILLEEN        PTSUNNY   81  60  47 VRB6      30.13F
KILLEEN-SKYLRK SUNNY     82  61  47 S5        30.12F
FORT HOOD      SUNNY     85  61  44 VRB3      30.13F
GATESVILLE     MOSUNNY   82  61  47 SW7       30.15F
HAMILTON       MOSUNNY   83  58  41 S8        30.14F
LAMPASAS       MOSUNNY   81  61  51 S5        30.13F
$$

TXZ095>097-106>112-122>126-135>138-148>153-164>167-242000-
EAST TEXAS

CITY           SKY/WX    TMP DP  RH WIND       PRES   REMARKS
PARIS          SUNNY     75  55  50 S3        30.14F
SULPHUR SPRNGS SUNNY     77  55  46 S3        30.15F
MOUNT PLEASANT SUNNY     76  54  45 CALM      30.15F
MINEOLA        SUNNY     77  57  50 W3        30.15F
TYLER          SUNNY     76  56  49 SW5       30.14F
LONGVIEW       SUNNY     77  53  43 CALM      30.13F
MARSHALL       SUNNY     76  54  45 CALM      30.15F
ATHENS         SUNNY     75  55  50 S5        30.12F
PALESTINE      SUNNY     76  57  51 W3        30.15F
JACKSONVILLE   SUNNY     75  54  46 CALM      30.16F
HENDERSON      SUNNY     76  53  43 CALM      30.14F
NACOGDOCHES    SUNNY     75  52  43 NW3       30.14F
LUFKIN         SUNNY     79  51  37 NW5       30.13F
$$

SUPPLEMENTAL OBSERVATIONS (CENTRAL)

CITY           SKY/WX    TMP DP  RH WIND       PRES   REMARKS
$$

SUPPLEMENTAL OBSERVATIONS (WEST)

CITY           SKY/WX    TMP DP  RH WIND       PRES   REMARKS
$$

SUPPLEMENTAL OBSERVATIONS (EAST)

CITY           SKY/WX    TMP DP  RH WIND       PRES   REMARKS
$$

SUPPLEMENTAL OBSERVATIONS ARE A COLLECTION OF AUTOMATED INSTRUMENTS
THAT ARE MAINTAINED BY A VARIETY OF FEDERAL AND STATE AGENCIES.
CERTAIN ELEMENTS...SUCH AS HUMIDITY VALUES AND SUSTAINED WIND
SPEEDS...MAY BE APPROXIMATED.




USA.gov is the U.S. government's official web portal to all federal, state and local government web resources and services.